[[{"header":{"parameterUnit":"m.s-1","parameterCategory":1,"la1":30.2991,"la2":30.254,"lo1":-89.0895,"lo2":-89.0444,"dy":0.0017,"dx":0.0017,"nx":28,"ny":28,"refTime":"2023-08-22T03:00:00:Z","depth":0,"parameterNumber":2,"parameterNumberName":"U-component_of_WINDS"},"data":[0,0,0,0,0,0,0,0,0,0,0,0,0,0,0,0,0,0,0,0,0,0,0,0,0,0,0,0,0,0,0,0,0,0,0,0,0,0,0,0,0,0,0,0,0,0,0,0,0,0,0,0,0,0,0,0,0,0,0.0919,0.0919,0,0.0957,0.0958,0.0958,0.0975,0.0975,0.0975,0.0975,0.1014,0.1015,0.1016,0,0,0,0,0,0,0,0,0,0,0,0,0,0.0857,0.0858,0.0918,0.0919,0.0919,0.0957,0.0958,0.0958,0.0975,0.0975,0.0975,0.0975,0.1014,0.1015,0.1016,0,0,0,0,0,0,0,0,0,0,0,0,0,0.0888,0.0858,0.0918,0.0932,0.0934,0.0957,0.0958,0.0959,0.0975,0.0975,0.0975,0.0975,0.1013,0.1015,0.1016,0.1029,0,0,0.1021,0.1022,0,0,0,0,0,0,0,0,0.0886,0.0891,0.093,0.0931,0.0933,0.0961,0.095,0.0982,0.0975,0.0959,0.0975,0.0975,0.0996,0.0999,0.1007,0.103,0.1032,0.1022,0.1023,0.1023,0.1024,0,0,0,0,0,0,0,0.0884,0.0889,0.0934,0.093,0.0932,0.0936,0.094,0.0957,0.0978,0.0961,0.0962,0.0966,0.0997,0.1005,0.1008,0.1033,0.1022,0.1023,0.1024,0.1025,0.1067,0.1067,0,0,0,0,0,0,0.088,0.0887,0.0933,0.0935,0.0909,0.0937,0.0942,0.0952,0.0978,0.0982,0.0966,0.0967,0.1003,0.1006,0.1009,0.1025,0.1023,0.1025,0.1026,0.1067,0.1067,0.1067,0,0,0,0,0,0,0.0879,0.0884,0.0931,0.0911,0.0918,0.0938,0.095,0.0953,0.0961,0.0982,0.0986,0.0971,0.1003,0.1007,0.1023,0.1026,0.1026,0.1027,0.1066,0.1067,0.1067,0.1056,0,0,0,0,0,0,0.0877,0.0883,0.0889,0.0911,0.0919,0.0945,0.095,0.0954,0.0964,0.0965,0.0987,0.0991,0.1003,0.1021,0.1025,0.1029,0.1028,0.1066,0.1067,0.1067,0.1056,0.1056,0.1055,0,0,0,0,0,0.0875,0.0884,0.0889,0.0894,0.0926,0.0945,0.0949,0.0963,0.0964,0.0969,0.0983,0.099,0.1025,0.1022,0.1027,0.1031,0.1066,0.1066,0.1067,0.1056,0.1056,0.1055,0,0,0,0,0,0,0.0861,0.0887,0.0893,0.091,0.0925,0.0948,0.0955,0.0962,0.0977,0.0977,0.0994,0.0999,0.1013,0.1024,0.102,0.1044,0.1046,0.1048,0.1036,0.1036,0.1036,0.1033,0.103,0,0,0,0,0,0.086,0.0874,0.0896,0.0909,0.0916,0.0934,0.0943,0.0952,0.0969,0.0975,0.099,0.1005,0.1019,0.1028,0.1043,0.1057,0.1062,0.1062,0.1062,0.1062,0.1063,0.107,0.1071,0.1068,0.1068,0.1068,0,0,0.0858,0.0874,0.0882,0.0907,0.0919,0.0933,0.0939,0.0954,0.0963,0.0977,0.0993,0.1004,0.1022,0.1037,0.1045,0.1047,0.1064,0.1062,0.1061,0.1063,0.1071,0.1071,0.1071,0.1068,0.1068,0.1068,0,0,0.0862,0.0875,0.0888,0.09,0.0919,0.0931,0.0934,0.0955,0.0963,0.0979,0.0989,0.1001,0.1026,0.1038,0.1047,0.1054,0.1061,0.1058,0.1056,0.1063,0.1064,0.1064,0.1066,0.1066,0.1059,0.1059,0.1059,0,0.0857,0.0878,0.0893,0.0906,0.0916,0.0929,0.0941,0.0952,0.0975,0.0981,0.0983,0.1013,0.1026,0.1044,0.1046,0.1053,0.1056,0.1056,0.1062,0.1063,0.1063,0.1065,0.1066,0.1058,0.1058,0.1058,0.1058,0,0.0871,0.0885,0.0892,0.0914,0.0925,0.0938,0.0953,0.0963,0.097,0.0982,0.0998,0.1014,0.1031,0.1036,0.1044,0.1055,0.1055,0.1059,0.1062,0.1063,0.1065,0.1066,0.1058,0.1058,0.1058,0.1058,0,0,0.0868,0.0897,0.0899,0.0909,0.093,0.0941,0.0954,0.0971,0.0978,0.0993,0.1004,0.1023,0.1027,0.1038,0.1047,0.1053,0.1057,0.1057,0.1057,0.1056,0.1069,0.1065,0.1066,0.1062,0.1062,0.1062,0.1067,0,0.0874,0.0898,0.0911,0.0929,0.0941,0.0953,0.0964,0.0978,0.0988,0.1,0.1012,0.1025,0.103,0.1036,0.1043,0.1055,0.106,0.1055,0.1071,0.1071,0.1066,0.1067,0.1064,0.1068,0.1068,0.1068,0.1068,0,0.0885,0.0899,0.0918,0.0938,0.0944,0.0953,0.0969,0.0981,0.0996,0.1004,0.1015,0.1024,0.1037,0.1038,0.1056,0.1052,0.1059,0.1066,0.1067,0.1069,0.107,0.1069,0.107,0.1071,0.107,0.107,0.107,0,0.088,0.0904,0.0919,0.0927,0.095,0.0956,0.0966,0.0981,0.099,0.1004,0.101,0.1025,0.1033,0.1045,0.1057,0.1057,0.1073,0.1076,0.1079,0.1079,0.1082,0.1082,0.1084,0.1087,0.1087,0.1087,0.1087,0,0.0885,0.0897,0.0917,0.0926,0.0938,0.0953,0.0964,0.0975,0.0988,0.0999,0.101,0.1019,0.1035,0.1047,0.1057,0.1069,0.1073,0.1079,0.1081,0.1078,0.1077,0.1083,0.1083,0.1087,0.1087,0.1087,0.1087,0,0.0882,0.0897,0.0913,0.0933,0.0938,0.0947,0.0963,0.0972,0.0983,0.0996,0.1,0.1016,0.103,0.1044,0.1062,0.1069,0.1081,0.1085,0.1076,0.1077,0.108,0.1079,0.1086,0.1087,0.1089,0.1089,0.1089,0,0.0885,0.0894,0.0915,0.0923,0.0932,0.0945,0.0954,0.0968,0.0977,0.0995,0.1001,0.1016,0.1028,0.105,0.1063,0.1077,0.1081,0.1082,0.1083,0.1079,0.1081,0.108,0.108,0.1082,0.1082,0.1082,0.1082,0,0.0888,0.0894,0.0908,0.0923,0.0934,0.0946,0.0959,0.0965,0.0981,0.0991,0.1005,0.1015,0.1033,0.1047,0.1063,0.1072,0.1079,0.1081,0.1083,0.1079,0.1074,0.1076,0.1075,0.1081,0.1081,0.1081,0.1081,0.1081,0.0888,0.0896,0.0912,0.0926,0.0937,0.0949,0.0957,0.0969,0.0981,0.0998,0.1005,0.1019,0.1033,0.1055,0.1064,0.1075,0.1077,0.1079,0.1079,0.108,0.1079,0.1072,0.1078,0.1078,0.1078,0.1078,0.1078,0,0.0891,0.0902,0.0914,0.0932,0.0943,0.0949,0.0963,0.0971,0.0984,0.0997,0.1009,0.1024,0.1038,0.1052,0.1066,0.1072,0.1076,0.1075,0.1075,0.1077,0.1076,0.1074,0.1072,0.1072,0.1072,0.1072,0.1072,0.1072,0.0894,0.0908,0.0916,0.0935,0.0945,0.0959,0.0967,0.0977,0.0988,0.1005,0.1016,0.1025,0.1038,0.1053,0.1066,0.1069,0.1074,0.1073,0.1077,0.1077,0.1077,0.1077,0.1075,0.1073,0.1073,0.1077,0.1077,0.1077]},{"header":{"parameterUnit":"m.s-1","parameterCategory":1,"la1":30.2991,"la2":30.254,"lo1":-89.0895,"lo2":-89.0444,"dy":0.0017,"dx":0.0017,"nx":28,"ny":28,"refTime":"2023-08-22T03:00:00:Z","depth":0,"parameterNumber":3,"parameterNumberName":"V-component_of_WINDS"},"data":[0,0,0,0,0,0,0,0,0,0,0,0,0,0,0,0,0,0,0,0,0,0,0,0,0,0,0,0,0,0,0,0,0,0,0,0,0,0,0,0,0,0,0,0,0,0,0,0,0,0,0,0,0,0,0,0,0,0,2.9231,2.923,0,2.9127,2.9126,2.9125,2.908,2.908,2.9081,2.9081,2.8967,2.8964,2.8961,0,0,0,0,0,0,0,0,0,0,0,0,0,2.9385,2.9382,2.9231,2.923,2.9228,2.9127,2.9126,2.9124,2.908,2.908,2.9081,2.9081,2.8968,2.8964,2.896,0,0,0,0,0,0,0,0,0,0,0,0,0,2.9303,2.9381,2.9231,2.9194,2.919,2.9128,2.9126,2.9124,2.908,2.908,2.9081,2.9081,2.8969,2.8965,2.896,2.8924,0,0,2.8945,2.8943,0,0,0,0,0,0,0,0,2.9308,2.9297,2.9201,2.9197,2.9192,2.9117,2.9138,2.9057,2.908,2.9121,2.9081,2.9081,2.9016,2.9007,2.8987,2.8919,2.8914,2.8945,2.8942,2.894,2.8938,0,0,0,0,0,0,0,2.9313,2.9301,2.9189,2.9199,2.9194,2.9181,2.917,2.9123,2.9068,2.9118,2.9114,2.9103,2.9014,2.8992,2.8984,2.8912,2.8945,2.894,2.8938,2.8936,2.8811,2.8811,0,0,0,0,0,0,2.9326,2.9307,2.9193,2.9186,2.9252,2.9178,2.9165,2.9141,2.9069,2.9058,2.9103,2.9102,2.9,2.899,2.898,2.8934,2.894,2.8935,2.8932,2.8812,2.8811,2.8811,0,0,0,0,0,0,2.933,2.9316,2.9197,2.9246,2.9229,2.9175,2.9147,2.9138,2.9117,2.9058,2.9047,2.9091,2.9,2.8987,2.8939,2.893,2.8933,2.8929,2.8812,2.8811,2.8811,2.8843,0,0,0,0,0,0,2.9334,2.9318,2.9305,2.9246,2.9227,2.916,2.9147,2.9136,2.9109,2.9106,2.9044,2.9033,2.8999,2.8947,2.8935,2.8923,2.8925,2.8813,2.8812,2.8811,2.8842,2.8844,2.8844,0,0,0,0,0,2.934,2.9316,2.9304,2.9291,2.921,2.9159,2.9148,2.9112,2.9109,2.9095,2.9057,2.9035,2.8933,2.8942,2.8928,2.8915,2.8813,2.8812,2.8811,2.8842,2.8843,2.8844,0,0,0,0,0,0,2.9372,2.9307,2.9294,2.9251,2.9211,2.9152,2.9133,2.9114,2.9072,2.9071,2.9024,2.9011,2.8967,2.8936,2.8948,2.8878,2.8871,2.8867,2.89,2.89,2.8901,2.8909,2.8921,0,0,0,0,0,2.9375,2.9341,2.9285,2.9252,2.9234,2.9187,2.9163,2.9139,2.9095,2.9077,2.9036,2.8993,2.8951,2.8924,2.8882,2.8838,2.8824,2.8823,2.8824,2.8825,2.8822,2.8797,2.8796,2.8808,2.8808,2.8808,0,0,2.9378,2.9339,2.932,2.9258,2.9225,2.9189,2.9173,2.9136,2.9109,2.9071,2.9025,2.8993,2.8941,2.8896,2.8874,2.8869,2.8816,2.8824,2.8825,2.8821,2.8796,2.8795,2.8794,2.8807,2.8807,2.8807,0,0,2.9367,2.9334,2.9304,2.9272,2.9223,2.9193,2.9186,2.913,2.9109,2.9063,2.9034,2.9,2.8929,2.8894,2.8867,2.8846,2.8825,2.8834,2.8838,2.8815,2.8814,2.8813,2.8807,2.8805,2.8831,2.8831,2.8831,0,2.9377,2.9325,2.929,2.9256,2.923,2.9198,2.9166,2.9136,2.9074,2.9056,2.9052,2.8964,2.8927,2.8874,2.887,2.8848,2.8838,2.884,2.8818,2.8817,2.8815,2.8808,2.8805,2.8833,2.8832,2.8832,2.8832,0,2.934,2.9305,2.9286,2.9232,2.9203,2.917,2.9129,2.9104,2.9083,2.9053,2.9007,2.8961,2.8911,2.8896,2.8874,2.8841,2.8839,2.8827,2.8819,2.8816,2.8809,2.8805,2.8835,2.8834,2.8834,2.8833,0,0,2.9344,2.9274,2.9267,2.9243,2.9189,2.9159,2.9125,2.9079,2.9059,2.9018,2.8988,2.893,2.892,2.8889,2.8862,2.8842,2.883,2.8833,2.8831,2.8834,2.8792,2.8801,2.8798,2.8816,2.8816,2.8815,2.8796,0,2.9325,2.9266,2.9235,2.9187,2.9154,2.9125,2.9095,2.9058,2.9029,2.8995,2.8963,2.8923,2.8912,2.8894,2.8873,2.8836,2.8821,2.8837,2.8786,2.8785,2.88,2.8794,2.8803,2.8787,2.8793,2.8792,2.8792,0,2.9295,2.926,2.921,2.9162,2.9147,2.9121,2.9077,2.9046,2.9002,2.8983,2.8951,2.8926,2.8887,2.8884,2.8831,2.8843,2.882,2.8799,2.8798,2.8791,2.8788,2.8787,2.8781,2.8779,2.8787,2.8787,2.8788,0,2.9304,2.9243,2.9206,2.9186,2.9128,2.9111,2.9086,2.9043,2.9018,2.8979,2.8962,2.8918,2.8894,2.886,2.8823,2.8824,2.8774,2.8767,2.8756,2.8757,2.8745,2.8746,2.8735,2.8732,2.8732,2.8732,2.8732,0,2.9286,2.9257,2.9209,2.9186,2.9153,2.9118,2.9085,2.9057,2.902,2.899,2.8961,2.8933,2.8887,2.8853,2.8823,2.8784,2.8773,2.8755,2.8748,2.8758,2.876,2.8742,2.8742,2.8731,2.8731,2.8731,2.8731,0,2.9289,2.9256,2.9214,2.9165,2.9152,2.9129,2.9086,2.9062,2.9033,2.8996,2.8985,2.8939,2.8898,2.8859,2.8803,2.8783,2.8744,2.8734,2.8759,2.8755,2.8746,2.8748,2.8723,2.8718,2.8718,2.8718,2.8718,0,2.928,2.9258,2.9207,2.9187,2.9164,2.913,2.9106,2.907,2.9046,2.8997,2.8979,2.8936,2.8901,2.8836,2.8796,2.8754,2.8743,2.8737,2.8736,2.8747,2.8743,2.8744,2.8742,2.8737,2.8738,2.8738,2.8738,0,2.9267,2.9253,2.922,2.9183,2.9155,2.9123,2.9089,2.9074,2.9031,2.9005,2.8965,2.8937,2.8883,2.8841,2.8794,2.8766,2.8744,2.8739,2.8734,2.8744,2.876,2.8752,2.8762,2.8739,2.8739,2.8739,2.8739,2.8739,2.9264,2.9243,2.9206,2.9171,2.9143,2.9113,2.9089,2.9059,2.9026,2.8981,2.8961,2.8921,2.8879,2.8815,2.8788,2.8754,2.8749,2.8742,2.874,2.8739,2.8741,2.8766,2.8745,2.8745,2.8745,2.8745,2.8745,0,2.925,2.9226,2.9194,2.915,2.9123,2.9109,2.9072,2.9049,2.9015,2.8979,2.8946,2.89,2.886,2.8819,2.8777,2.8758,2.8747,2.8748,2.8749,2.8743,2.8748,2.8757,2.8758,2.8758,2.8758,2.8758,2.8758,2.8758,2.924,2.9205,2.9187,2.9138,2.9112,2.9075,2.9055,2.9027,2.8999,2.8951,2.8919,2.8894,2.8856,2.8811,2.8773,2.8762,2.8748,2.8751,2.8737,2.8743,2.8742,2.8741,2.8749,2.8748,2.8748,2.8735,2.8734,2.8734]}]]